Weather History for KWST - December, 2012

Change the Weather History Date:

Saturday, December 29, 2012

  Actual Average (KGON) Record (KGON)
Temperature  
Mean Temperature 30 °F -  
Max Temperature 35 °F 40 °F 69 °F (1996)
Min Temperature 24 °F 23 °F 5 °F (1993)
Degree Days  
Heating Degree Days 36    
Moisture  
Dew Point 30 °F    
Average Humidity 93    
Maximum Humidity 100    
Minimum Humidity 75    
Precipitation  
Precipitation 0.40 in - - ()
Sea Level Pressure  
Sea Level Pressure 29.61 in    
Wind  
Wind Speed 6 mph (North)    
Max Wind Speed 16 mph    
Max Gust Speed 25 mph    
Visibility 5 miles    
Events Fog , Rain , Snow    
Averages and records for this station are not official NWS values.
T = Trace of Precipitation, MM = Missing Value Source: NWS Daily Summary

Daily Weather History Graph

Daily Weather History Graph

Search for Another Location

Airport or City:

Trip Planner

Search our weather history database for the weather conditions in past years. The results will help you decide how hot, cold, wet, or windy it might be!

Date:

Astronomy

Dec. 29, 2012 Rise Set
Actual Time 7:12 AM EST 4:26 PM EST
Civil Twilight 6:41 AM EST 4:57 PM EST
Nautical Twilight 6:06 AM EST 5:32 PM EST
Astronomical Twilight 5:33 AM EST 6:06 PM EST
Moon 5:57 PM EST (12/29) 7:43 AM EST (12/29)
Length of Visible Light 10h 16m
Length of Day
9h 13m
Full, 98% of the Moon is Illuminated
Dec 29
Full
Jan 4
Last Quarter
Jan 11
New
Jan 18
First Quarter
Jan 26
Full

Hourly Weather History & Observations

Time (EST) Temp. Windchill Dew Point Humidity Pressure Visibility Wind Dir Wind Speed Gust Speed Precip Events Conditions
12:53 AM 27.0 °F - 23.0 °F 85% 30.04 in 10.0 mi Calm Calm - N/A   Clear
1:53 AM 25.0 °F - 21.9 °F 88% 30.03 in 10.0 mi Calm Calm - N/A   Clear
2:53 AM 24.1 °F - 21.9 °F 91% 30.03 in 10.0 mi Calm Calm - N/A   Clear
3:53 AM 25.0 °F - 23.0 °F 92% 30.01 in 10.0 mi Calm Calm - N/A   Clear
4:53 AM 26.1 °F - 24.1 °F 92% 30.00 in 10.0 mi Calm Calm - N/A   Clear
5:53 AM 28.0 °F - 24.1 °F 85% 30.01 in 10.0 mi Calm Calm - N/A   Partly Cloudy
6:53 AM 28.0 °F - 25.0 °F 88% 29.99 in 10.0 mi Calm Calm - N/A   Scattered Clouds
7:53 AM 28.9 °F - 25.0 °F 85% 29.97 in 10.0 mi Calm Calm - N/A   Mostly Cloudy
8:53 AM 28.9 °F 22.8 °F 26.1 °F 89% 29.95 in 10.0 mi NNE 5.8 mph - N/A   Scattered Clouds
9:53 AM 30.0 °F 24.1 °F 25.0 °F 82% 29.92 in 10.0 mi NNE 5.8 mph - N/A   Overcast
10:53 AM 32.0 °F 26.4 °F 28.0 °F 85% 29.88 in 10.0 mi NNE 5.8 mph - N/A   Overcast
11:53 AM 35.1 °F 29.3 °F 30.0 °F 82% 29.81 in 10.0 mi NE 6.9 mph - N/A   Overcast
12:25 PM 35.6 °F 29.2 °F 28.4 °F 75% 29.77 in 10.0 mi NE 8.1 mph - N/A   Overcast
1:20 PM 33.8 °F 27.0 °F 30.2 °F 87% 29.70 in 10.0 mi NE 8.1 mph - 0.00 in Rain Light Rain
1:53 PM 33.1 °F 26.9 °F 30.0 °F 89% 29.68 in 7.0 mi NE 6.9 mph - 0.00 in Rain Light Rain
2:04 PM 33.8 °F 27.7 °F 30.2 °F 87% 29.67 in 5.0 mi NE 6.9 mph - 0.00 in Rain Light Rain
2:12 PM 33.8 °F 27.7 °F 30.2 °F 87% 29.68 in 4.0 mi NE 6.9 mph - 0.00 in Rain Light Rain
2:23 PM 32.0 °F 25.6 °F 30.2 °F 93% 29.66 in 4.0 mi NE 6.9 mph - 0.01 in Rain Light Rain
2:35 PM 32.0 °F 24.8 °F 30.2 °F 93% 29.66 in 4.0 mi NE 8.1 mph - 0.02 in   Overcast
2:53 PM 32.0 °F 24.2 °F 30.9 °F 96% 29.66 in 5.0 mi NE 9.2 mph 18.4 mph 0.02 in   Overcast
3:05 PM 32.0 °F 23.6 °F 30.2 °F 93% 29.66 in 4.0 mi NE 10.4 mph 17.3 mph 0.00 in Rain Light Freezing Rain
3:19 PM 32.0 °F 24.8 °F 30.2 °F 93% 29.65 in 2.5 mi NE 8.1 mph 17.3 mph 0.02 in Rain Light Freezing Rain
3:28 PM 32.0 °F 23.6 °F 30.2 °F 93% 29.63 in 2.5 mi NNE 10.4 mph 19.6 mph 0.04 in Rain Light Freezing Rain
3:30 PM 32.0 °F 23.6 °F 30.2 °F 93% 29.63 in 3.0 mi NNE 10.4 mph 19.6 mph 0.04 in Snow Light Snow
3:36 PM 32.0 °F 23.0 °F 30.2 °F 93% 29.61 in 1.8 mi NNE 11.5 mph 19.6 mph 0.05 in Snow Light Snow
3:50 PM 30.2 °F 20.8 °F 30.2 °F 100% 29.60 in 2.0 mi NE 11.5 mph 20.7 mph 0.07 in Snow Light Snow
3:53 PM 30.9 °F 21.2 °F 30.9 °F 100% 29.61 in 2.0 mi NE 12.7 mph - 0.08 in Snow Light Snow
4:23 PM 30.2 °F 20.2 °F 30.2 °F 100% 29.57 in 4.0 mi NE 12.7 mph 18.4 mph 0.00 in Snow Light Snow
4:51 PM 32.0 °F 22.5 °F 32.0 °F 100% 29.52 in 7.0 mi NNE 12.7 mph 21.9 mph 0.02 in Rain Light Freezing Rain
4:53 PM 32.0 °F 23.6 °F 32.0 °F 100% 29.52 in 7.0 mi NE 10.4 mph 21.9 mph 0.02 in Rain Light Freezing Rain
5:33 PM 33.8 °F 24.8 °F 32.0 °F 93% 29.49 in 5.0 mi NNE 12.7 mph - 0.06 in Rain Light Freezing Rain
6:01 PM 33.8 °F 25.8 °F 32.0 °F 93% 29.46 in 1.0 mi NNE 10.4 mph 18.4 mph 0.02 in Snow Light Snow
6:53 PM 33.1 °F 24.4 °F 32.0 °F 96% 29.42 in 1.0 mi NNE 11.5 mph 17.3 mph 0.10 in Snow Light Snow
7:53 PM 32.0 °F 22.5 °F 32.0 °F 100% 29.38 in 1.0 mi North 12.7 mph - 0.05 in Snow Light Snow
8:29 PM 32.0 °F 22.5 °F 32.0 °F 100% 29.35 in 0.5 mi North 12.7 mph - 0.04 in Fog , Snow Snow
8:38 PM 32.0 °F 23.0 °F 32.0 °F 100% 29.36 in 0.8 mi North 11.5 mph - 0.07 in Snow Light Snow
8:53 PM 32.0 °F 22.5 °F 32.0 °F 100% 29.36 in 1.0 mi NNW 12.7 mph - 0.09 in Snow Light Snow
9:04 PM 32.0 °F 22.1 °F 32.0 °F 100% 29.36 in 0.8 mi NNW 13.8 mph 21.9 mph 0.01 in Snow Light Snow
9:16 PM 32.0 °F 23.0 °F 32.0 °F 100% 29.36 in 1.2 mi North 11.5 mph - 0.02 in Snow Light Snow
9:27 PM 32.0 °F 23.0 °F 32.0 °F 100% 29.37 in 1.5 mi North 11.5 mph 20.7 mph 0.03 in Snow Light Snow
9:38 PM 30.2 °F 19.3 °F 30.2 °F 100% 29.36 in 2.0 mi North 15.0 mph 21.9 mph 0.04 in Snow Light Snow
9:53 PM 32.0 °F 23.0 °F 30.9 °F 96% 29.39 in 2.5 mi NNW 11.5 mph 19.6 mph 0.04 in Snow Light Snow
10:13 PM 32.0 °F 22.1 °F 30.2 °F 93% 29.39 in 1.8 mi NNW 13.8 mph 25.3 mph 0.00 in Snow Light Snow
10:20 PM 32.0 °F 21.2 °F 30.2 °F 93% 29.39 in 2.0 mi NNW 16.1 mph 21.9 mph 0.00 in Snow Light Snow
10:30 PM 32.0 °F 21.2 °F 32.0 °F 100% 29.40 in 1.5 mi NNW 16.1 mph 21.9 mph 0.00 in Snow Light Snow
10:43 PM 33.8 °F 24.8 °F 32.0 °F 93% 29.40 in 2.5 mi NNW 12.7 mph 21.9 mph 0.00 in Snow Light Snow
10:53 PM 33.1 °F 24.4 °F 32.0 °F 96% 29.40 in 3.0 mi NNW 11.5 mph - 0.00 in Snow Light Snow
11:00 PM 33.8 °F 26.4 °F 32.0 °F 93% 29.41 in 3.0 mi NNW 9.2 mph 18.4 mph 0.00 in Snow Light Snow
11:06 PM 33.8 °F 24.8 °F 32.0 °F 93% 29.41 in 2.5 mi NNW 12.7 mph 18.4 mph 0.00 in Snow Light Snow
11:17 PM 33.8 °F 25.8 °F 32.0 °F 93% 29.41 in 3.0 mi NNW 10.4 mph 18.4 mph 0.00 in Snow Light Snow
11:29 PM 32.0 °F 23.6 °F 32.0 °F 100% 29.42 in 3.0 mi NW 10.4 mph 19.6 mph 0.00 in Snow Light Snow
11:51 PM 32.0 °F 23.0 °F 30.2 °F 93% 29.42 in 6.0 mi NW 11.5 mph 19.6 mph 0.00 in Snow Light Snow
11:53 PM 30.9 °F 20.2 °F 30.0 °F 96% 29.42 in 7.0 mi NNW 15.0 mph 21.9 mph 0.00 in Snow Light Snow